Time,TemperatureF,DewpointF,PressureIn,WindDirection,WindDirectionDegrees,WindSpeedMPH,WindSpeedGustMPH,Humidity,HourlyPrecipIn,Conditions,Clouds,dailyrainin,SoftwareType,DateUTC
2013-08-02 00:02:00,65.0,61.0,29.78,West,259,0.0,0.0,88,-99.99,,,-99.99,,2013-08-02 05:02:00,
2013-08-02 00:12:00,65.0,62.0,29.78,WSW,255,0.0,0.0,89,-99.99,,,-99.99,,2013-08-02 05:12:00,
2013-08-02 00:22:00,65.0,62.0,29.78,WSW,255,0.0,0.0,89,-99.99,,,-99.99,,2013-08-02 05:22:00,
2013-08-02 00:32:00,65.0,62.0,29.78,WSW,255,0.0,0.0,89,-99.99,,,-99.99,,2013-08-02 05:32:00,
2013-08-02 00:43:00,66.0,61.0,29.77,NW,318,0.0,0.0,85,-99.99,,,-99.99,,2013-08-02 05:43:00,
2013-08-02 00:53:00,65.0,61.0,29.77,West,271,0.0,0.0,86,-99.99,,,-99.99,,2013-08-02 05:53:00,
2013-08-02 01:02:00,65.0,61.0,29.77,West,271,0.0,0.0,86,-99.99,,,-99.99,,2013-08-02 06:02:00,
2013-08-02 01:12:00,64.0,60.0,29.78,West,276,0.0,0.0,88,-99.99,,,-99.99,,2013-08-02 06:12:00,
2013-08-02 01:22:00,64.0,60.0,29.78,West,276,0.0,0.0,88,-99.99,,,-99.99,,2013-08-02 06:22:00,
2013-08-02 01:33:00,63.0,60.0,29.78,West,269,1.0,0.0,89,-99.99,,,-99.99,,2013-08-02 06:33:00,
2013-08-02 01:43:00,63.0,60.0,29.78,West,269,1.0,0.0,89,-99.99,,,-99.99,,2013-08-02 06:43:00,
2013-08-02 01:52:00,62.0,59.0,29.79,West,271,0.0,0.0,89,-99.99,,,-99.99,,2013-08-02 06:52:00,
2013-08-02 02:02:00,62.0,59.0,29.79,West,271,0.0,0.0,89,-99.99,,,-99.99,,2013-08-02 07:02:00,
2013-08-02 02:12:00,63.0,59.0,29.80,West,265,0.0,0.0,88,-99.99,,,-99.99,,2013-08-02 07:12:00,
2013-08-02 02:22:00,63.0,59.0,29.80,West,265,0.0,0.0,88,-99.99,,,-99.99,,2013-08-02 07:22:00,
2013-08-02 02:33:00,63.0,59.0,29.80,West,265,0.0,0.0,88,-99.99,,,-99.99,,2013-08-02 07:33:00,
2013-08-02 02:44:00,63.0,58.0,29.78,WNW,298,1.0,0.0,85,-99.99,,,-99.99,,2013-08-02 07:44:00,
2013-08-02 02:53:00,63.0,58.0,29.77,ENE,58,1.0,0.0,85,-99.99,,,-99.99,,2013-08-02 07:53:00,
2013-08-02 03:02:00,63.0,58.0,29.77,West,276,0.0,0.0,85,-99.99,,,-99.99,,2013-08-02 08:02:00,
2013-08-02 03:33:00,61.0,58.0,29.78,West,278,0.0,0.0,89,-99.99,,,-99.99,,2013-08-02 08:33:00,
2013-08-02 03:43:00,61.0,58.0,29.78,West,278,0.0,0.0,89,-99.99,,,-99.99,,2013-08-02 08:43:00,
2013-08-02 03:54:00,61.0,57.0,29.78,NW,316,0.0,0.0,88,-99.99,,,-99.99,,2013-08-02 08:54:00,
2013-08-02 04:12:00,62.0,58.0,29.78,NNE,22,0.0,0.0,87,-99.99,,,-99.99,,2013-08-02 09:12:00,
2013-08-02 04:23:00,61.0,58.0,29.77,NW,315,0.0,0.0,89,-99.99,,,-99.99,,2013-08-02 09:23:00,
2013-08-02 04:33:00,61.0,57.0,29.77,WSW,255,1.0,0.0,88,-99.99,,,-99.99,,2013-08-02 09:33:00,
2013-08-02 04:43:00,61.0,58.0,29.77,West,264,0.0,0.0,89,-99.99,,,-99.99,,2013-08-02 09:43:00,
2013-08-02 04:53:00,61.0,57.0,29.77,West,264,0.0,0.0,88,-99.99,,,-99.99,,2013-08-02 09:53:00,
2013-08-02 05:03:00,60.0,57.0,29.77,West,264,0.0,0.0,89,-99.99,,,-99.99,,2013-08-02 10:03:00,
2013-08-02 05:12:00,60.0,57.0,29.77,West,264,0.0,0.0,90,-99.99,,,-99.99,,2013-08-02 10:12:00,
2013-08-02 05:23:00,60.0,57.0,29.77,West,264,0.0,0.0,90,-99.99,,,-99.99,,2013-08-02 10:23:00,
2013-08-02 05:33:00,59.0,57.0,29.78,West,264,0.0,0.0,92,-99.99,,,-99.99,,2013-08-02 10:33:00,
2013-08-02 05:43:00,60.0,57.0,29.78,West,264,0.0,0.0,91,-99.99,,,-99.99,,2013-08-02 10:43:00,
2013-08-02 05:52:00,60.0,57.0,29.78,West,264,0.0,0.0,91,-99.99,,,-99.99,,2013-08-02 10:52:00,
2013-08-02 06:02:00,60.0,57.0,29.78,West,264,0.0,0.0,91,-99.99,,,-99.99,,2013-08-02 11:02:00,
2013-08-02 06:12:00,60.0,57.0,29.78,West,264,0.0,0.0,91,-99.99,,,-99.99,,2013-08-02 11:12:00,
2013-08-02 06:23:00,60.0,57.0,29.80,WSW,250,1.0,0.0,91,-99.99,,,-99.99,,2013-08-02 11:23:00,
2013-08-02 09:02:00,66.0,59.0,29.81,North,5,2.0,0.0,77,-99.99,,,-99.99,,2013-08-02 14:02:00,
2013-08-02 09:12:00,66.0,59.0,29.80,NE,34,5.0,0.0,77,-99.99,,,-99.99,,2013-08-02 14:12:00,
2013-08-02 09:22:00,66.0,59.0,29.80,NE,34,5.0,0.0,77,-99.99,,,-99.99,,2013-08-02 14:22:00,
2013-08-02 09:32:00,68.0,59.0,29.80,ENE,60,5.0,0.0,72,-99.99,,,-99.99,,2013-08-02 14:32:00,
2013-08-02 09:43:00,68.0,59.0,29.80,ENE,60,5.0,0.0,72,-99.99,,,-99.99,,2013-08-02 14:43:00,
2013-08-02 10:03:00,69.0,58.0,29.80,NE,41,5.0,0.0,69,-99.99,,,-99.99,,2013-08-02 15:03:00,
2013-08-02 10:12:00,70.0,59.0,29.81,North,8,2.0,0.0,67,-99.99,,,-99.99,,2013-08-02 15:12:00,
2013-08-02 10:22:00,71.0,58.0,29.81,ENE,58,9.0,0.0,64,-99.99,,,-99.99,,2013-08-02 15:22:00,
2013-08-02 10:32:00,71.0,58.0,29.81,North,7,4.0,0.0,64,-99.99,,,-99.99,,2013-08-02 15:32:00,
2013-08-02 10:43:00,71.0,58.0,29.81,North,7,4.0,0.0,64,-99.99,,,-99.99,,2013-08-02 15:43:00,
2013-08-02 10:52:00,71.0,58.0,29.81,NNE,32,0.0,0.0,64,-99.99,,,-99.99,,2013-08-02 15:52:00,
2013-08-02 11:02:00,71.0,57.0,29.81,NE,49,0.0,0.0,62,-99.99,,,-99.99,,2013-08-02 16:02:00,
2013-08-02 11:12:00,71.0,57.0,29.81,NE,49,0.0,0.0,62,-99.99,,,-99.99,,2013-08-02 16:12:00,
2013-08-02 11:22:00,71.0,57.0,29.81,NE,49,0.0,0.0,62,-99.99,,,-99.99,,2013-08-02 16:22:00,
2013-08-02 11:32:00,72.0,57.0,29.82,NE,42,0.0,0.0,60,-99.99,,,-99.99,,2013-08-02 16:32:00,
2013-08-02 11:43:00,73.0,56.0,29.82,ENE,58,0.0,0.0,55,-99.99,,,-99.99,,2013-08-02 16:43:00,
2013-08-02 11:53:00,73.0,56.0,29.82,NE,34,0.0,0.0,55,-99.99,,,-99.99,,2013-08-02 16:53:00,
2013-08-02 12:02:00,73.0,56.0,29.83,NE,53,0.0,0.0,56,-99.99,,,-99.99,,2013-08-02 17:02:00,
2013-08-02 12:12:00,73.0,56.0,29.83,NE,53,0.0,0.0,56,-99.99,,,-99.99,,2013-08-02 17:12:00,
2013-08-02 12:22:00,74.0,58.0,29.83,NE,56,0.0,0.0,57,-99.99,,,-99.99,,2013-08-02 17:22:00,
2013-08-02 12:35:00,74.0,58.0,29.83,NE,56,0.0,0.0,57,-99.99,,,-99.99,,2013-08-02 17:35:00,
2013-08-02 12:43:00,75.0,57.0,29.83,NW,314,0.0,0.0,54,-99.99,,,-99.99,,2013-08-02 17:43:00,
2013-08-02 12:52:00,75.0,57.0,29.83,NW,314,0.0,0.0,54,-99.99,,,-99.99,,2013-08-02 17:52:00,
2013-08-02 13:02:00,75.0,57.0,29.83,NW,314,0.0,0.0,54,-99.99,,,-99.99,,2013-08-02 18:02:00,
2013-08-02 13:12:00,75.0,57.0,29.83,NW,314,0.0,0.0,54,-99.99,,,-99.99,,2013-08-02 18:12:00,
2013-08-02 13:22:00,75.0,56.0,29.85,NE,44,0.0,0.0,51,-99.99,,,-99.99,,2013-08-02 18:22:00,
2013-08-02 13:32:00,75.0,56.0,29.86,WSW,254,0.0,0.0,52,-99.99,,,-99.99,,2013-08-02 18:32:00,
2013-08-02 13:43:00,75.0,56.0,29.86,WSW,254,0.0,0.0,52,-99.99,,,-99.99,,2013-08-02 18:43:00,
2013-08-02 13:52:00,75.0,56.0,29.86,WSW,254,0.0,0.0,52,-99.99,,,-99.99,,2013-08-02 18:52:00,
2013-08-02 14:02:00,77.0,56.0,29.86,NNE,13,0.0,0.0,49,-99.99,,,-99.99,,2013-08-02 19:02:00,
2013-08-02 14:22:00,76.0,57.0,29.85,NNW,340,0.0,0.0,52,-99.99,,,-99.99,,2013-08-02 19:22:00,
2013-08-02 14:32:00,76.0,57.0,29.85,NNW,340,0.0,0.0,52,-99.99,,,-99.99,,2013-08-02 19:32:00,
2013-08-02 14:43:00,76.0,57.0,29.85,NNW,340,0.0,0.0,52,-99.99,,,-99.99,,2013-08-02 19:43:00,
2013-08-02 14:52:00,76.0,57.0,29.85,NNW,340,0.0,0.0,52,-99.99,,,-99.99,,2013-08-02 19:52:00,
2013-08-02 15:02:00,76.0,57.0,29.85,NNW,340,0.0,0.0,52,-99.99,,,-99.99,,2013-08-02 20:02:00,
2013-08-02 17:12:00,72.0,60.0,29.86,NW,321,1.0,0.0,65,-99.99,,,-99.99,,2013-08-02 22:12:00,
2013-08-02 17:22:00,72.0,60.0,29.86,NW,321,1.0,0.0,65,-99.99,,,-99.99,,2013-08-02 22:22:00,
2013-08-02 17:32:00,72.0,60.0,29.85,NE,50,1.0,0.0,67,-99.99,,,-99.99,,2013-08-02 22:32:00,
2013-08-02 17:43:00,72.0,61.0,29.85,NE,46,1.0,0.0,69,-99.99,,,-99.99,,2013-08-02 22:43:00,
2013-08-02 17:52:00,72.0,61.0,29.85,NE,46,1.0,0.0,69,-99.99,,,-99.99,,2013-08-02 22:52:00,
2013-08-02 18:02:00,72.0,60.0,29.85,NE,56,3.0,0.0,67,-99.99,,,-99.99,,2013-08-02 23:02:00,
2013-08-02 18:32:00,71.0,60.0,29.85,NE,56,0.0,0.0,68,-99.99,,,-99.99,,2013-08-02 23:32:00,
2013-08-02 18:43:00,71.0,61.0,29.86,NE,56,0.0,0.0,70,-99.99,,,-99.99,,2013-08-02 23:43:00,
2013-08-02 18:53:00,71.0,61.0,29.86,NE,56,0.0,0.0,70,-99.99,,,-99.99,,2013-08-02 23:53:00,
2013-08-02 19:12:00,71.0,61.0,29.86,NE,56,0.0,0.0,70,-99.99,,,-99.99,,2013-08-03 00:12:00,
2013-08-02 19:22:00,70.0,62.0,29.87,NE,40,2.0,0.0,75,-99.99,,,-99.99,,2013-08-03 00:22:00,
2013-08-02 19:33:00,70.0,62.0,29.87,NE,40,2.0,0.0,75,-99.99,,,-99.99,,2013-08-03 00:33:00,
2013-08-02 19:43:00,70.0,62.0,29.87,NE,40,2.0,0.0,75,-99.99,,,-99.99,,2013-08-03 00:43:00,
2013-08-02 19:52:00,70.0,62.0,29.87,NE,40,2.0,0.0,75,-99.99,,,-99.99,,2013-08-03 00:52:00,
2013-08-02 20:02:00,70.0,62.0,29.87,NE,40,2.0,0.0,75,-99.99,,,-99.99,,2013-08-03 01:02:00,
2013-08-02 20:33:00,72.0,64.0,29.88,WNW,299,0.0,0.0,77,-99.99,,,-99.99,,2013-08-03 01:33:00,
2013-08-02 20:43:00,71.0,63.0,29.88,WNW,299,0.0,0.0,77,-99.99,,,-99.99,,2013-08-03 01:43:00,
2013-08-02 20:53:00,71.0,63.0,29.88,WNW,299,0.0,0.0,77,-99.99,,,-99.99,,2013-08-03 01:53:00,
2013-08-02 21:02:00,71.0,63.0,29.88,WNW,299,0.0,0.0,77,-99.99,,,-99.99,,2013-08-03 02:02:00,
2013-08-02 21:22:00,65.0,61.0,29.90,West,261,0.0,0.0,86,-99.99,,,-99.99,,2013-08-03 02:22:00,
2013-08-02 21:32:00,65.0,61.0,29.90,West,261,0.0,0.0,86,-99.99,,,-99.99,,2013-08-03 02:32:00,
2013-08-02 21:43:00,63.0,60.0,29.91,West,261,0.0,0.0,89,-99.99,,,-99.99,,2013-08-03 02:43:00,
2013-08-02 21:52:00,63.0,60.0,29.91,West,261,0.0,0.0,89,-99.99,,,-99.99,,2013-08-03 02:52:00,
2013-08-02 22:02:00,61.0,58.0,29.92,West,261,0.0,0.0,90,-99.99,,,-99.99,,2013-08-03 03:02:00,
2013-08-02 22:12:00,61.0,58.0,29.93,West,260,0.0,0.0,90,-99.99,,,-99.99,,2013-08-03 03:12:00,
2013-08-02 22:22:00,61.0,58.0,29.93,West,260,0.0,0.0,90,-99.99,,,-99.99,,2013-08-03 03:22:00,
2013-08-02 22:32:00,60.0,57.0,29.93,West,260,0.0,0.0,91,-99.99,,,-99.99,,2013-08-03 03:32:00,
2013-08-02 22:43:00,59.0,57.0,29.93,West,261,0.0,0.0,92,-99.99,,,-99.99,,2013-08-03 03:43:00,
2013-08-02 22:53:00,59.0,57.0,29.93,West,260,0.0,0.0,92,-99.99,,,-99.99,,2013-08-03 03:53:00,
2013-08-02 23:02:00,59.0,57.0,29.94,West,260,0.0,0.0,92,-99.99,,,-99.99,,2013-08-03 04:02:00,
2013-08-02 23:12:00,59.0,57.0,29.94,West,260,0.0,0.0,92,-99.99,,,-99.99,,2013-08-03 04:12:00,
2013-08-02 23:22:00,57.0,55.0,29.94,West,260,0.0,0.0,92,-99.99,,,-99.99,,2013-08-03 04:22:00,
2013-08-02 23:32:00,57.0,55.0,29.94,West,260,0.0,0.0,92,-99.99,,,-99.99,,2013-08-03 04:32:00,
2013-08-02 23:43:00,57.0,55.0,29.94,West,261,0.0,0.0,93,-99.99,,,-99.99,,2013-08-03 04:43:00,
2013-08-02 23:53:00,57.0,55.0,29.94,West,261,0.0,0.0,93,-99.99,,,-99.99,,2013-08-03 04:53:00,